Location: Saluda
(35.2377°N, 82.3468°W)
Time: 03:26:52
(UTC+00:00)

Vanguard 2 - Pass Details

Date: 09 October 2022
Orbit: 553 x 2933 km, 32.9° (Epoch: 04 December)

Event Time Altitude Azimuth Distance (km) Brightness Sun altitude
Rises 16:24:09 0° 242° (WSW) 3,628 11.1 46.5°
Reaches altitude 10° 16:26:20 10° 238° (WSW) 2,904 10.7 46.7°
Maximum altitude 16:33:30 62° 159° (SSE) 1,667 11.3 47.1°
Drops below altitude 10° 16:45:42 10° 83° (E) 4,779 11.7 47.7°
Sets 16:50:20 0° 81° (E) 6,120 12.1 47.9°
